owner,sensor,date,latitude,longitude,vertical_datum,wind_speed,wind_to_direction,wind_speed_of_gust,qcFlag 
TABS,ioos:station:wmo:42047:1,2005-04-01T00:09:00Z,27.8966,-93.5973,4.0,3.317303122,93.80299783,8.8,'11111222,11111222,11111222' 
TABS,ioos:station:wmo:42047:1,2005-04-01T00:39:00Z,27.8966,-93.5973,4.0,3.902665756,107.5996309,9.83,'11111222,11111222,11111222' 
TABS,ioos:station:wmo:42047:1,2005-04-01T01:09:00Z,27.8966,-93.5973,4.0,4.390956616,122.821812,10.46,'11111222,11111222,11111222' 
TABS,ioos:station:wmo:42047:1,2005-04-01T01:39:00Z,27.8966,-93.5973,4.0,3.964404117,130.6016206,8.99,'11111222,11111222,11111222' 
TABS,ioos:station:wmo:42047:1,2005-04-01T02:09:00Z,27.8966,-93.5973,4.0,4.159062394,141.8353357,9.82,'11111222,11111222,11111222' 
TABS,ioos:station:wmo:42047:1,2005-04-01T02:39:00Z,27.8966,-93.5973,4.0,4.343109485,136.493024,10.2,'11111222,11111222,11111222' 
TABS,ioos:station:wmo:42047:1,2005-04-01T03:09:00Z,27.8966,-93.5973,4.0,4.057314383,154.761565,9.66,'11111222,11111222,11111222' 
TABS,ioos:station:wmo:42047:1,2005-04-01T03:39:00Z,27.8966,-93.5973,4.0,3.131980204,164.6328146,9.47,'11111222,11111222,11111222' 
TABS,ioos:station:wmo:42047:1,2005-04-01T04:09:00Z,27.8966,-93.5973,4.0,2.567975857,189.8659943,8.7,'11111222,11111222,11111222' 
TABS,ioos:station:wmo:42047:1,2005-04-01T04:39:00Z,27.8966,-93.5973,4.0,3.209143188,151.1190867,9.23,'11111222,11111222,11111222' 
TABS,ioos:station:wmo:42047:1,2005-04-01T05:09:00Z,27.8966,-93.5973,4.0,3.292734426,160.2996126,9.44,'11111222,11111222,11111222' 
TABS,ioos:station:wmo:42047:1,2005-04-01T05:39:00Z,27.8966,-93.5973,4.0,1.495660389,184.9865326,8.02,'11111222,11111222,11111222' 
TABS,ioos:station:wmo:42047:1,2005-04-01T06:09:00Z,27.8966,-93.5973,4.0,1.810331461,190.5031889,8.62,'11111222,11111222,11111222' 
TABS,ioos:station:wmo:42047:1,2005-04-01T06:39:00Z,27.8966,-93.5973,4.0,1.09772492,186.8015094,7.52,'11111222,11111222,11111222' 
TABS,ioos:station:wmo:42047:1,2005-04-01T07:09:00Z,27.8966,-93.5973,4.0,1.749285568,157.8339165,7.52,'11111222,11111222,11111222' 
TABS,ioos:station:wmo:42047:1,2005-04-01T07:39:00Z,27.8966,-93.5973,4.0,2.566281356,189.6460322,8.45,'11111222,11111222,11111222' 
TABS,ioos:station:wmo:42047:1,2005-04-01T08:09:00Z,27.8966,-93.5973,4.0,2.932865493,196.6432801,8.46,'11111222,11111222,11111222' 
TABS,ioos:station:wmo:42047:1,2005-04-01T08:39:00Z,27.8966,-93.5973,4.0,4.207433897,224.5186405,10.44,'11111222,11111222,11111222' 
TABS,ioos:station:wmo:42047:1,2005-04-01T09:09:00Z,27.8966,-93.5973,4.0,4.014286985,253.0547162,12.24,'11111222,11111222,11111222' 
TABS,ioos:station:wmo:42047:1,2005-04-01T09:39:00Z,27.8966,-93.5973,4.0,4.697658991,245.0715842,11.05,'11111222,11111222,11111222' 
TABS,ioos:station:wmo:42047:1,2005-04-01T10:09:00Z,27.8966,-93.5973,4.0,4.309477927,246.7665487,11.4,'11111222,11111222,11111222' 
TABS,ioos:station:wmo:42047:1,2005-04-01T10:39:00Z,27.8966,-93.5973,4.0,6.239695505,261.4283905,13.74,'11111222,11111222,11111222' 
TABS,ioos:station:wmo:42047:1,2005-04-01T11:09:00Z,27.8966,-93.5973,4.0,8.682816363,283.8601631,17.58,'11111222,11111222,11111222' 
TABS,ioos:station:wmo:42047:1,2005-04-01T11:39:00Z,27.8966,-93.5973,4.0,9.801555999,289.4886274,17.05,'11111222,11111222,11111222' 
TABS,ioos:station:wmo:42047:1,2005-04-01T12:10:00Z,27.8966,-93.5973,4.0,12.92557542,287.6078423,17.61,'11111222,11111222,11111222' 
TABS,ioos:station:wmo:42047:1,2005-04-01T12:39:00Z,27.8966,-93.5973,4.0,10.58571207,309.0570109,17.78,'11111222,11111222,11111222' 
TABS,ioos:station:wmo:42047:1,2005-04-01T13:09:00Z,27.8966,-93.5973,4.0,9.905816473,318.6833725,18.57,'11111222,11111222,11111222' 
TABS,ioos:station:wmo:42047:1,2005-04-01T13:39:00Z,27.8966,-93.5973,4.0,9.044893587,315.8509794,16.73,'11111222,11111222,11111222' 
TABS,ioos:station:wmo:42047:1,2005-04-01T14:09:00Z,27.8966,-93.5973,4.0,10.26045808,318.7141517,18.62,'11111222,11111222,11111222' 
TABS,ioos:station:wmo:42047:1,2005-04-01T14:40:00Z,27.8966,-93.5973,4.0,9.421915941,324.2854661,18.77,'11111222,11111222,11111222' 
TABS,ioos:station:wmo:42047:1,2005-04-01T15:09:00Z,27.8966,-93.5973,4.0,11.83403989,318.1854145,19.68,'11111222,11111222,11111222' 
TABS,ioos:station:wmo:42047:1,2005-04-01T15:39:00Z,27.8966,-93.5973,4.0,12.28046416,313.3501306,20.31,'11111222,11111222,11111222' 
TABS,ioos:station:wmo:42047:1,2005-04-01T16:39:00Z,27.8966,-93.5973,4.0,12.57087507,313.2915272,21.14,'11111222,11111222,11111222' 
TABS,ioos:station:wmo:42047:1,2005-04-01T17:09:00Z,27.8966,-93.5973,4.0,13.40491328,313.3978484,22.22,'11111222,11111222,11111222' 
TABS,ioos:station:wmo:42047:1,2005-04-01T17:39:00Z,27.8966,-93.5973,4.0,12.92453868,306.3466995,22.01,'11111222,11111222,11111222' 
TABS,ioos:station:wmo:42047:1,2005-04-01T18:09:00Z,27.8966,-93.5973,4.0,13.02031106,306.4737649,21.87,'11111222,11111222,11111222' 
TABS,ioos:station:wmo:42047:1,2005-04-01T18:39:00Z,27.8966,-93.5973,4.0,11.81744473,311.4321229,20.82,'11111222,11111222,11111222' 
TABS,ioos:station:wmo:42047:1,2005-04-01T19:09:00Z,27.8966,-93.5973,4.0,11.41456088,304.6506276,20.25,'11111222,11111222,11111222' 
TABS,ioos:station:wmo:42047:1,2005-04-01T19:39:00Z,27.8966,-93.5973,4.0,11.64248255,307.3914718,19.69,'11111222,11111222,11111222' 
TABS,ioos:station:wmo:42047:1,2005-04-01T20:39:00Z,27.8966,-93.5973,4.0,11.38610118,307.1113515,20.06,'11111222,11111222,11111222' 
TABS,ioos:station:wmo:42047:1,2005-04-01T21:09:00Z,27.8966,-93.5973,4.0,11.74354291,309.8179716,20.92,'11111222,11111222,11111222' 
TABS,ioos:station:wmo:42047:1,2005-04-01T21:39:00Z,27.8966,-93.5973,4.0,12.64310089,315.1280727,21.51,'11111222,11111222,11111222' 
TABS,ioos:station:wmo:42047:1,2005-04-01T22:39:00Z,27.8966,-93.5973,4.0,11.76769306,315.8950664,21.02,'11111222,11111222,11111222' 
TABS,ioos:station:wmo:42047:1,2005-04-01T23:09:00Z,27.8966,-93.5973,4.0,11.79864399,316.5109403,20.79,'11111222,11111222,11111222' 
TABS,ioos:station:wmo:42047:1,2005-04-01T23:39:00Z,27.8966,-93.5973,4.0,12.86906368,318.7804545,21.21,'11111222,11111222,11111222' 
TABS,ioos:station:wmo:42047:1,2005-04-02T00:09:00Z,27.8966,-93.5973,4.0,12.98688954,323.800588,21.47,'11111222,11111222,11111222' 
TABS,ioos:station:wmo:42047:1,2005-04-02T00:39:00Z,27.8966,-93.5973,4.0,13.48827639,318.4862866,21.23,'11111222,11111222,11111222' 
TABS,ioos:station:wmo:42047:1,2005-04-02T01:09:00Z,27.8966,-93.5973,4.0,14.14635289,324.1749892,23.29,'11111222,11111222,11111222' 
TABS,ioos:station:wmo:42047:1,2005-04-02T01:39:00Z,27.8966,-93.5973,4.0,13.81764452,326.4823082,22.67,'11111222,11111222,11111222' 
TABS,ioos:station:wmo:42047:1,2005-04-02T02:09:00Z,27.8966,-93.5973,4.0,13.84728132,330.3986785,25.03,'11111222,11111222,11111222' 
TABS,ioos:station:wmo:42047:1,2005-04-02T02:39:00Z,27.8966,-93.5973,4.0,13.41615817,324.5565208,23.64,'11111222,11111222,11111222' 
TABS,ioos:station:wmo:42047:1,2005-04-02T03:09:00Z,27.8966,-93.5973,4.0,13.51847994,324.6050765,22.5,'11111222,11111222,11111222' 
TABS,ioos:station:wmo:42047:1,2005-04-02T03:39:00Z,27.8966,-93.5973,4.0,13.79262484,326.2637154,23.55,'11111222,11111222,11111222' 
TABS,ioos:station:wmo:42047:1,2005-04-02T04:09:00Z,27.8966,-93.5973,4.0,13.13825711,326.6121816,23.43,'11111222,11111222,11111222' 
TABS,ioos:station:wmo:42047:1,2005-04-02T04:39:00Z,27.8966,-93.5973,4.0,13.6324906,334.2618455,23.23,'11111222,11111222,11111222' 
TABS,ioos:station:wmo:42047:1,2005-04-02T05:09:00Z,27.8966,-93.5973,4.0,13.79127623,339.0547929,23.45,'11111222,11111222,11111222' 
TABS,ioos:station:wmo:42047:1,2005-04-02T05:39:00Z,27.8966,-93.5973,4.0,13.79175478,344.6536165,22.8,'11111222,11111222,11111222' 
TABS,ioos:station:wmo:42047:1,2005-04-02T06:09:00Z,27.8966,-93.5973,4.0,11.95003766,340.2911831,22.33,'11111222,11111222,11111222' 
TABS,ioos:station:wmo:42047:1,2005-04-02T06:39:00Z,27.8966,-93.5973,4.0,13.4229654,344.2655068,23.2,'11111222,11111222,11111222' 
TABS,ioos:station:wmo:42047:1,2005-04-02T07:09:00Z,27.8966,-93.5973,4.0,12.88783923,347.4517229,22.6,'11111222,11111222,11111222' 
TABS,ioos:station:wmo:42047:1,2005-04-02T07:39:00Z,27.8966,-93.5973,4.0,12.33337748,346.4480733,22.69,'11111222,11111222,11111222' 
TABS,ioos:station:wmo:42047:1,2005-04-02T08:09:00Z,27.8966,-93.5973,4.0,12.27073347,347.2886867,21.42,'11111222,11111222,11111222' 
TABS,ioos:station:wmo:42047:1,2005-04-02T08:39:00Z,27.8966,-93.5973,4.0,12.1711955,346.6029617,23.72,'11111222,11111222,11111222' 
TABS,ioos:station:wmo:42047:1,2005-04-02T09:09:00Z,27.8966,-93.5973,4.0,11.92366554,354.5617481,21.61,'11111222,11111222,11111222' 
TABS,ioos:station:wmo:42047:1,2005-04-02T09:39:00Z,27.8966,-93.5973,4.0,11.37770627,352.881036,20.42,'11111222,11111222,11111222' 
TABS,ioos:station:wmo:42047:1,2005-04-02T10:09:00Z,27.8966,-93.5973,4.0,10.36503739,356.0165803,19.03,'11111222,11111222,11111222' 
TABS,ioos:station:wmo:42047:1,2005-04-02T10:39:00Z,27.8966,-93.5973,4.0,10.20948579,357.529744,19.11,'11111222,11111222,11111222' 
TABS,ioos:station:wmo:42047:1,2005-04-02T11:09:00Z,27.8966,-93.5973,4.0,9.996209282,352.4695538,18.41,'11111222,11111222,11111222' 
TABS,ioos:station:wmo:42047:1,2005-04-02T11:39:00Z,27.8966,-93.5973,4.0,9.928000806,353.2899684,18.87,'11111222,11111222,11111222' 
TABS,ioos:station:wmo:42047:1,2005-04-02T12:09:00Z,27.8966,-93.5973,4.0,10.17381443,2.985930502,18.46,'11111222,11111222,11111222' 
TABS,ioos:station:wmo:42047:1,2005-04-02T12:39:00Z,27.8966,-93.5973,4.0,9.590161625,4.545114221,18.57,'11111222,11111222,11111222' 
TABS,ioos:station:wmo:42047:1,2005-04-02T13:09:00Z,27.8966,-93.5973,4.0,9.3215503,358.9548132,17.35,'11111222,11111222,11111222' 
TABS,ioos:station:wmo:42047:1,2005-04-02T13:39:00Z,27.8966,-93.5973,4.0,9.116106625,352.1185843,17.06,'11111222,11111222,11111222' 
TABS,ioos:station:wmo:42047:1,2005-04-02T14:09:00Z,27.8966,-93.5973,4.0,8.790364043,355.236159,17.08,'11111222,11111222,11111222' 
TABS,ioos:station:wmo:42047:1,2005-04-02T14:39:00Z,27.8966,-93.5973,4.0,7.891343358,355.7848587,16.14,'11111222,11111222,11111222' 
TABS,ioos:station:wmo:42047:1,2005-04-02T15:09:00Z,27.8966,-93.5973,4.0,6.561348947,350.9681677,14.49,'11111222,11111222,11111222' 
TABS,ioos:station:wmo:42047:1,2005-04-02T15:39:00Z,27.8966,-93.5973,4.0,6.71545233,353.3298436,15.1,'11111222,11111222,11111222' 
TABS,ioos:station:wmo:42047:1,2005-04-02T16:39:00Z,27.8966,-93.5973,4.0,5.364708753,347.6216059,13.0,'11111222,11111222,11111222' 
TABS,ioos:station:wmo:42047:1,2005-04-02T17:09:00Z,27.8966,-93.5973,4.0,4.395816193,344.6989797,13.52,'11111222,11111222,11111222' 
TABS,ioos:station:wmo:42047:1,2005-04-02T17:39:00Z,27.8966,-93.5973,4.0,5.022917479,336.0373566,13.69,'11111222,11111222,11111222' 
TABS,ioos:station:wmo:42047:1,2005-04-02T18:09:00Z,27.8966,-93.5973,4.0,4.437623238,326.4888491,12.62,'11111222,11111222,11111222' 
TABS,ioos:station:wmo:42047:1,2005-04-02T18:39:00Z,27.8966,-93.5973,4.0,4.087468654,315.7928635,11.84,'11111222,11111222,11111222' 
TABS,ioos:station:wmo:42047:1,2005-04-02T19:09:00Z,27.8966,-93.5973,4.0,3.611370931,325.6057423,11.18,'11111222,11111222,11111222' 
TABS,ioos:station:wmo:42047:1,2005-04-02T19:39:00Z,27.8966,-93.5973,4.0,3.190109716,304.7859457,11.08,'11111222,11111222,11111222' 
TABS,ioos:station:wmo:42047:1,2005-04-02T20:39:00Z,27.8966,-93.5973,4.0,3.632588609,295.0835353,12.03,'11111222,11111222,11111222' 
TABS,ioos:station:wmo:42047:1,2005-04-02T21:09:00Z,27.8966,-93.5973,4.0,3.228002478,286.1891684,10.91,'11111222,11111222,11111222' 
TABS,ioos:station:wmo:42047:1,2005-04-02T21:39:00Z,27.8966,-93.5973,4.0,2.724646766,282.5059696,10.99,'11111222,11111222,11111222' 
TABS,ioos:station:wmo:42047:1,2005-04-02T22:39:00Z,27.8966,-93.5973,4.0,4.588649039,288.9482231,11.14,'11111222,11111222,11111222' 
TABS,ioos:station:wmo:42047:1,2005-04-02T23:09:00Z,27.8966,-93.5973,4.0,4.860545237,288.8449521,11.08,'11111222,11111222,11111222' 
TABS,ioos:station:wmo:42047:1,2005-04-02T23:39:00Z,27.8966,-93.5973,4.0,4.564778198,291.055485,10.54,'11111222,11111222,11111222' 
TABS,ioos:station:wmo:42047:1,2005-04-03T00:09:00Z,27.8966,-93.5973,4.0,3.801815356,287.2910515,9.88,'11111222,11111222,11111222' 
TABS,ioos:station:wmo:42047:1,2005-04-03T00:39:00Z,27.8966,-93.5973,4.0,3.953036807,277.4126441,10.23,'11111222,11111222,11111222' 
TABS,ioos:station:wmo:42047:1,2005-04-03T01:09:00Z,27.8966,-93.5973,4.0,3.553603805,267.4194075,9.89,'11111222,11111222,11111222' 
TABS,ioos:station:wmo:42047:1,2005-04-03T01:39:00Z,27.8966,-93.5973,4.0,3.420526275,268.9949163,9.34,'11111222,11111222,11111222' 
TABS,ioos:station:wmo:42047:1,2005-04-03T02:09:00Z,27.8966,-93.5973,4.0,4.264692251,267.3120373,10.28,'11111222,11111222,11111222' 
TABS,ioos:station:wmo:42047:1,2005-04-03T02:39:00Z,27.8966,-93.5973,4.0,3.8524927,265.3845795,9.23,'11111222,11111222,11111222' 
TABS,ioos:station:wmo:42047:1,2005-04-03T03:09:00Z,27.8966,-93.5973,4.0,4.019079497,273.8519975,9.64,'11111222,11111222,11111222' 
TABS,ioos:station:wmo:42047:1,2005-04-03T03:39:00Z,27.8966,-93.5973,4.0,4.0,270.0,9.61,'11111222,11111222,11111222' 
TABS,ioos:station:wmo:42047:1,2005-04-03T04:09:00Z,27.8966,-93.5973,4.0,3.994058087,267.4169854,9.5,'11111222,11111222,11111222' 
TABS,ioos:station:wmo:42047:1,2005-04-03T04:39:00Z,27.8966,-93.5973,4.0,3.38141982,263.5475522,9.03,'11111222,11111222,11111222' 
TABS,ioos:station:wmo:42047:1,2005-04-03T05:09:00Z,27.8966,-93.5973,4.0,3.351611553,263.4899189,8.59,'11111222,11111222,11111222' 
TABS,ioos:station:wmo:42047:1,2005-04-03T05:39:00Z,27.8966,-93.5973,4.0,2.821099077,264.9159085,7.98,'11111222,11111222,11111222' 
TABS,ioos:station:wmo:42047:1,2005-04-03T06:09:00Z,27.8966,-93.5973,4.0,2.024277649,263.1909657,7.57,'11111222,11111222,11111222' 
TABS,ioos:station:wmo:42047:1,2005-04-03T06:39:00Z,27.8966,-93.5973,4.0,2.522855525,267.2736954,7.35,'11111222,11111222,11111222' 
TABS,ioos:station:wmo:42047:1,2005-04-03T07:09:00Z,27.8966,-93.5973,4.0,1.878563281,252.3367062,6.84,'11111222,11111222,11111222' 
TABS,ioos:station:wmo:42047:1,2005-04-03T07:39:00Z,27.8966,-93.5973,4.0,1.252198067,243.4350109,6.02,'11111222,11111222,11111222' 
TABS,ioos:station:wmo:42047:1,2005-04-03T08:09:00Z,27.8966,-93.5973,4.0,1.842009772,232.9435585,6.97,'11111222,11111222,11111222' 
TABS,ioos:station:wmo:42047:1,2005-04-03T08:39:00Z,27.8966,-93.5973,4.0,1.95440528,242.9105803,7.25,'11111222,11111222,11111222' 
TABS,ioos:station:wmo:42047:1,2005-04-03T09:09:00Z,27.8966,-93.5973,4.0,1.171537451,2.935456123,7.16,'11111222,11111222,11111222' 
TABS,ioos:station:wmo:42047:1,2005-04-03T09:39:00Z,27.8966,-93.5973,4.0,2.084250465,152.5746219,8.24,'11111222,11111222,11111222' 
TABS,ioos:station:wmo:42047:1,2005-04-03T10:09:00Z,27.8966,-93.5973,4.0,2.872507615,125.7930735,8.37,'11111222,11111222,11111222' 
TABS,ioos:station:wmo:42047:1,2005-04-03T10:39:00Z,27.8966,-93.5973,4.0,3.476003452,145.0757899,9.11,'11111222,11111222,11111222' 
TABS,ioos:station:wmo:42047:1,2005-04-03T11:09:00Z,27.8966,-93.5973,4.0,3.080259729,127.6142898,8.06,'11111222,11111222,11111222' 
TABS,ioos:station:wmo:42047:1,2005-04-03T11:39:00Z,27.8966,-93.5973,4.0,3.351492205,141.420589,8.67,'11111222,11111222,11111222' 
TABS,ioos:station:wmo:42047:1,2005-04-03T12:09:00Z,27.8966,-93.5973,4.0,3.444836716,136.5294051,8.83,'11111222,11111222,11111222' 
TABS,ioos:station:wmo:42047:1,2005-04-03T12:39:00Z,27.8966,-93.5973,4.0,3.373603415,125.1036669,8.46,'11111222,11111222,11111222' 
TABS,ioos:station:wmo:42047:1,2005-04-03T13:09:00Z,27.8966,-93.5973,4.0,4.45,117.1412262,9.73,'11111222,11111222,11111222' 
TABS,ioos:station:wmo:42047:1,2005-04-03T13:39:00Z,27.8966,-93.5973,4.0,4.402839993,111.7292839,9.5,'11111222,11111222,11111222' 
TABS,ioos:station:wmo:42047:1,2005-04-03T14:09:00Z,27.8966,-93.5973,4.0,5.350588753,118.0980382,10.91,'11111222,11111222,11111222' 
TABS,ioos:station:wmo:42047:1,2005-04-03T14:39:00Z,27.8966,-93.5973,4.0,5.725425748,122.6634175,11.04,'11111222,11111222,11111222' 
TABS,ioos:station:wmo:42047:1,2005-04-03T15:09:00Z,27.8966,-93.5973,4.0,5.548224941,122.4873779,11.13,'11111222,11111222,11111222' 
TABS,ioos:station:wmo:42047:1,2005-04-03T15:39:00Z,27.8966,-93.5973,4.0,5.638049308,125.325373,11.24,'11111222,11111222,11111222' 
TABS,ioos:station:wmo:42047:1,2005-04-03T16:09:00Z,27.8966,-93.5973,4.0,5.064484179,136.4404057,10.38,'11111222,11111222,11111222' 
TABS,ioos:station:wmo:42047:1,2005-04-03T16:39:00Z,27.8966,-93.5973,4.0,5.26636497,137.6168446,10.94,'11111222,11111222,11111222' 
TABS,ioos:station:wmo:42047:1,2005-04-03T17:09:00Z,27.8966,-93.5973,4.0,5.010429123,144.9145906,10.26,'11111222,11111222,11111222' 
TABS,ioos:station:wmo:42047:1,2005-04-03T17:39:00Z,27.8966,-93.5973,4.0,5.316135815,139.9601418,10.92,'11111222,11111222,11111222' 
TABS,ioos:station:wmo:42047:1,2005-04-03T18:09:00Z,27.8966,-93.5973,4.0,5.005457022,141.0008344,10.7,'11111222,11111222,11111222' 
TABS,ioos:station:wmo:42047:1,2005-04-03T18:39:00Z,27.8966,-93.5973,4.0,4.837933443,136.3403203,10.01,'11111222,11111222,11111222' 
TABS,ioos:station:wmo:42047:1,2005-04-03T19:09:00Z,27.8966,-93.5973,4.0,4.991442677,141.7528134,10.73,'11111222,11111222,11111222' 
TABS,ioos:station:wmo:42047:1,2005-04-03T19:39:00Z,27.8966,-93.5973,4.0,5.027534187,135.0809002,10.71,'11111222,11111222,11111222' 
TABS,ioos:station:wmo:42047:1,2005-04-03T20:09:00Z,27.8966,-93.5973,4.0,5.383121771,150.3874161,10.43,'11111222,11111222,11111222' 
TABS,ioos:station:wmo:42047:1,2005-04-03T20:39:00Z,27.8966,-93.5973,4.0,5.489936247,147.4970764,10.76,'11111222,11111222,11111222' 
TABS,ioos:station:wmo:42047:1,2005-04-03T21:09:00Z,27.8966,-93.5973,4.0,5.445677185,155.3647476,10.96,'11111222,11111222,11111222' 
TABS,ioos:station:wmo:42047:1,2005-04-03T21:39:00Z,27.8966,-93.5973,4.0,5.394339626,149.9655635,10.9,'11111222,11111222,11111222' 
TABS,ioos:station:wmo:42047:1,2005-04-03T22:09:00Z,27.8966,-93.5973,4.0,5.140204276,149.743844,9.97,'11111222,11111222,11111222' 
TABS,ioos:station:wmo:42047:1,2005-04-03T22:39:00Z,27.8966,-93.5973,4.0,5.123055729,166.9134146,10.51,'11111222,11111222,11111222' 
TABS,ioos:station:wmo:42047:1,2005-04-03T23:09:00Z,27.8966,-93.5973,4.0,5.28284961,156.1038497,11.02,'11111222,11111222,11111222' 
TABS,ioos:station:wmo:42047:1,2005-04-03T23:39:00Z,27.8966,-93.5973,4.0,5.167059125,151.9473574,10.34,'11111222,11111222,11111222' 
TABS,ioos:station:wmo:42047:1,2005-04-04T00:09:00Z,27.8966,-93.5973,4.0,5.006246099,160.8776452,10.74,'11111222,11111222,11111222' 
TABS,ioos:station:wmo:42047:1,2005-04-04T00:39:00Z,27.8966,-93.5973,4.0,5.418533012,166.5538625,11.11,'11111222,11111222,11111222' 
TABS,ioos:station:wmo:42047:1,2005-04-04T01:09:00Z,27.8966,-93.5973,4.0,5.165317028,153.4352214,10.69,'11111222,11111222,11111222' 
TABS,ioos:station:wmo:42047:1,2005-04-04T01:39:00Z,27.8966,-93.5973,4.0,5.401712691,150.2553987,10.94,'11111222,11111222,11111222' 
TABS,ioos:station:wmo:42047:1,2005-04-04T04:09:00Z,27.8966,-93.5973,4.0,6.216148325,155.5791975,12.06,'11111222,11111222,11111222' 
TABS,ioos:station:wmo:42047:1,2005-04-04T04:39:00Z,27.8966,-93.5973,4.0,6.12249949,149.0365263,12.33,'11111222,11111222,11111222' 
TABS,ioos:station:wmo:42047:1,2005-04-04T05:09:00Z,27.8966,-93.5973,4.0,5.735538336,155.0437248,12.37,'11111222,11111222,11111222' 
TABS,ioos:station:wmo:42047:1,2005-04-04T05:39:00Z,27.8966,-93.5973,4.0,6.252047665,153.3942374,13.13,'11111222,11111222,11111222' 
TABS,ioos:station:wmo:42047:1,2005-04-04T06:09:00Z,27.8966,-93.5973,4.0,6.47824822,151.8133333,12.66,'11111222,11111222,11111222' 
TABS,ioos:station:wmo:42047:1,2005-04-04T06:39:00Z,27.8966,-93.5973,4.0,6.581527178,147.9764464,13.42,'11111222,11111222,11111222' 
TABS,ioos:station:wmo:42047:1,2005-04-04T07:09:00Z,27.8966,-93.5973,4.0,7.071131451,152.63799,13.49,'11111222,11111222,11111222' 
TABS,ioos:station:wmo:42047:1,2005-04-04T07:39:00Z,27.8966,-93.5973,4.0,7.065330849,155.3214134,13.45,'11111222,11111222,11111222' 
TABS,ioos:station:wmo:42047:1,2005-04-04T08:09:00Z,27.8966,-93.5973,4.0,7.15187388,160.222486,13.17,'11111222,11111222,11111222' 
TABS,ioos:station:wmo:42047:1,2005-04-04T08:39:00Z,27.8966,-93.5973,4.0,7.246716498,160.2400635,13.48,'11111222,11111222,11111222' 
TABS,ioos:station:wmo:42047:1,2005-04-04T09:09:00Z,27.8966,-93.5973,4.0,7.540961477,159.4264279,14.15,'11111222,11111222,11111222' 
TABS,ioos:station:wmo:42047:1,2005-04-04T09:39:00Z,27.8966,-93.5973,4.0,6.835736976,160.1603716,13.09,'11111222,11111222,11111222' 
TABS,ioos:station:wmo:42047:1,2005-04-04T10:09:00Z,27.8966,-93.5973,4.0,8.161678749,153.2782474,14.52,'11111222,11111222,11111222' 
TABS,ioos:station:wmo:42047:1,2005-04-04T10:40:00Z,27.8966,-93.5973,4.0,6.920440737,183.1478859,15.2,'11111222,11111222,11111222' 
TABS,ioos:station:wmo:42047:1,2005-04-04T11:09:00Z,27.8966,-93.5973,4.0,8.312412406,166.7163068,14.64,'11111222,11111222,11111222' 
TABS,ioos:station:wmo:42047:1,2005-04-04T11:39:00Z,27.8966,-93.5973,4.0,7.443903546,157.1554089,13.6,'11111222,11111222,11111222' 
TABS,ioos:station:wmo:42047:1,2005-04-04T12:09:00Z,27.8966,-93.5973,4.0,6.502245766,160.7850621,14.87,'11111222,11111222,11111222' 
TABS,ioos:station:wmo:42047:1,2005-04-04T12:39:00Z,27.8966,-93.5973,4.0,7.760219069,158.2948245,14.29,'11111222,11111222,11111222' 
TABS,ioos:station:wmo:42047:1,2005-04-04T13:09:00Z,27.8966,-93.5973,4.0,6.953711239,167.5429287,13.49,'11111222,11111222,11111222' 
TABS,ioos:station:wmo:42047:1,2005-04-04T13:39:00Z,27.8966,-93.5973,4.0,7.450241607,157.8418299,14.01,'11111222,11111222,11111222' 
TABS,ioos:station:wmo:42047:1,2005-04-04T14:39:00Z,27.8966,-93.5973,4.0,7.507329752,168.6304344,14.64,'11111222,11111222,11111222' 
TABS,ioos:station:wmo:42047:1,2005-04-04T15:09:00Z,27.8966,-93.5973,4.0,6.171393684,162.945302,12.07,'11111222,11111222,11111222' 
TABS,ioos:station:wmo:42047:1,2005-04-04T15:39:00Z,27.8966,-93.5973,4.0,7.347006193,160.6034794,13.91,'11111222,11111222,11111222' 
TABS,ioos:station:wmo:42047:1,2005-04-04T16:09:00Z,27.8966,-93.5973,4.0,7.191063899,161.7668717,13.79,'11111222,11111222,11111222' 
TABS,ioos:station:wmo:42047:1,2005-04-04T16:39:00Z,27.8966,-93.5973,4.0,6.166506304,173.7626402,11.69,'11111222,11111222,11111222' 
TABS,ioos:station:wmo:42047:1,2005-04-04T17:09:00Z,27.8966,-93.5973,4.0,5.947184208,167.6699753,12.18,'11111222,11111222,11111222' 
TABS,ioos:station:wmo:42047:1,2005-04-04T17:39:00Z,27.8966,-93.5973,4.0,6.357877004,156.9436705,12.46,'11111222,11111222,11111222' 
TABS,ioos:station:wmo:42047:1,2005-04-04T18:09:00Z,27.8966,-93.5973,4.0,6.797153816,155.3958603,12.7,'11111222,11111222,11111222' 
TABS,ioos:station:wmo:42047:1,2005-04-04T18:39:00Z,27.8966,-93.5973,4.0,6.740029674,155.6407366,12.11,'11111222,11111222,11111222' 
TABS,ioos:station:wmo:42047:1,2005-04-04T19:09:00Z,27.8966,-93.5973,4.0,6.632473144,153.9760948,12.19,'11111222,11111222,11111222' 
TABS,ioos:station:wmo:42047:1,2005-04-04T19:39:00Z,27.8966,-93.5973,4.0,6.976646759,149.3182136,13.02,'11111222,11111222,11111222' 
TABS,ioos:station:wmo:42047:1,2005-04-04T20:09:00Z,27.8966,-93.5973,4.0,7.215517999,148.3147511,12.95,'11111222,11111222,11111222' 
TABS,ioos:station:wmo:42047:1,2005-04-04T20:39:00Z,27.8966,-93.5973,4.0,7.752483473,138.765714,13.64,'11111222,11111222,11111222' 
TABS,ioos:station:wmo:42047:1,2005-04-04T21:09:00Z,27.8966,-93.5973,4.0,7.660450378,140.137274,13.51,'11111222,11111222,11111222' 
TABS,ioos:station:wmo:42047:1,2005-04-04T21:39:00Z,27.8966,-93.5973,4.0,7.260426985,137.2329334,13.18,'11111222,11111222,11111222' 
TABS,ioos:station:wmo:42047:1,2005-04-04T22:09:00Z,27.8966,-93.5973,4.0,8.398011669,126.9657477,14.73,'11111222,11111222,11111222' 
TABS,ioos:station:wmo:42047:1,2005-04-04T22:39:00Z,27.8966,-93.5973,4.0,8.751925502,124.7617406,15.39,'11111222,11111222,11111222' 
TABS,ioos:station:wmo:42047:1,2005-04-04T23:09:00Z,27.8966,-93.5973,4.0,9.570632163,127.528774,16.06,'11111222,11111222,11111222' 
TABS,ioos:station:wmo:42047:1,2005-04-04T23:39:00Z,27.8966,-93.5973,4.0,9.302220165,126.4760307,15.94,'11111222,11111222,11111222' 